FW0394 Weather Reports


Display with metric or nautical units.
time (UTC)temp
F
wind
direction
speed
MPH
gust
MPH
rain 1hr
in
rain 24hr
in
rain mn
in
humidity
%
barometer
mb
20260904144213 82 179 4.0 9.0 0.00 0.00 0.00 74 1011.7
20260904143503 81 184 4.0 7.0 0.00 0.00 0.00 74 1011.8
20260904143003 81 194 3.0 7.0 0.00 0.00 0.00 74 1011.7
20260904142504 81 184 3.0 6.0 0.00 0.00 0.00 76 1011.5
20260904142004 81 170 2.0 6.0 0.00 0.00 0.00 76 1011.6
20260904141503 80 187 2.0 6.0 0.00 0.00 0.00 77 1011.6
20260904141003 80 186 2.0 6.0 0.00 0.00 0.00 77 1011.6
20260904140503 80 179 3.0 7.0 0.00 0.00 0.00 77 1011.7
20260904140003 80 177 4.0 7.0 0.00 0.00 0.00 77 1011.7
20260904135714 80 176 4.0 7.0 0.00 0.00 0.00 77 1011.6
20260904135213 79 176 4.0 6.0 0.00 0.00 0.00 77 1011.6
20260904134503 79 163 3.0 7.0 0.00 0.00 0.00 78 1011.6
20260904134003 79 162 2.0 7.0 0.00 0.00 0.00 78 1011.5
20260904133503 79 156 2.0 5.0 0.00 0.00 0.00 79 1011.5
20260904133213 79 159 2.0 5.0 0.00 0.00 0.00 78 1011.5
20260904132503 78 169 2.0 5.0 0.00 0.00 0.00 79 1011.5
20260904132003 78 158 2.0 5.0 0.00 0.00 0.00 79 1011.4
20260904131503 78 141 2.0 7.0 0.00 0.00 0.00 79 1011.4
20260904131003 78 138 3.0 7.0 0.00 0.00 0.00 79 1011.3
20260904130714 78 134 3.0 7.0 0.00 0.00 0.00 79 1011.2
20260904130213 78 130 2.0 5.0 0.00 0.00 0.00 79 1011.1
20260904125503 78 124 2.0 4.0 0.00 0.00 0.00 80 1011.1
20260904125004 78 141 2.0 4.0 0.00 0.00 0.00 80 1011.0
20260904124503 77 156 2.0 4.0 0.00 0.00 0.00 80 1010.9
20260904124003 77 171 1.0 3.0 0.00 0.00 0.00 80 1010.9
20260904123503 77 174 0.0 3.0 0.00 0.00 0.00 80 1010.9
20260904123003 77 194 0.0 3.0 0.00 0.00 0.00 80 1010.7
20260904122505 77 194 0.0 3.0 0.00 0.00 0.00 80 1010.7
20260904122003 77 194 0.0 2.0 0.00 0.00 0.00 80 1010.7
20260904121714 77 194 0.0 2.0 0.00 0.00 0.00 80 1010.8
20260904121003 77 0 0.0 1.0 0.00 0.00 0.00 79 1010.8
20260904120503 77 0 0.0 0.0 0.00 0.00 0.00 79 1010.7
20260904120212 77 0 0.0 0.0 0.00 0.00 0.00 79 1010.7
20260904115503 77 194 0.0 2.0 0.00 0.00 0.00 78 1010.7
20260904115003 78 194 0.0 2.0 0.00 0.00 0.00 78 1010.7
20260904114503 78 194 0.0 3.0 0.00 0.00 0.00 78 1010.6
20260904114003 78 194 1.0 3.0 0.00 0.00 0.00 78 1010.5
20260904113503 78 194 0.0 3.0 0.00 0.00 0.00 77 1010.5
20260904113003 78 194 0.0 3.0 0.00 0.00 0.00 77 1010.5
20260904112503 78 194 0.0 3.0 0.00 0.00 0.00 77 1010.4
20260904112004 78 194 0.0 3.0 0.00 0.00 0.00 77 1010.7
20260904111503 78 194 1.0 3.0 0.00 0.00 0.00 76 1010.5
20260904111003 78 192 1.0 5.0 0.00 0.00 0.00 76 1010.5
20260904110713 78 188 2.0 5.0 0.00 0.00 0.00 76 1010.5
20260904110003 79 199 2.0 5.0 0.00 0.00 0.00 76 1010.5
20260904105713 79 200 2.0 5.0 0.00 0.00 0.00 76 1010.4
20260904105003 79 201 2.0 5.0 0.00 0.00 0.00 75 1010.4
20260904104504 79 202 2.0 8.0 0.00 0.00 0.00 75 1010.3
20260904104003 79 201 2.0 8.0 0.00 0.00 0.00 74 1010.3
20260904103503 79 205 2.0 7.0 0.00 0.01 0.00 74 1010.4
20260904103003 80 202 2.0 6.0 0.00 0.01 0.00 74 1010.4
20260904102503 80 207 3.0 7.0 0.00 0.01 0.00 74 1010.4
20260904102004 80 210 3.0 7.0 0.00 0.01 0.00 73 1010.4
20260904101503 80 211 3.0 7.0 0.00 0.01 0.00 73 1010.4
20260904101003 80 211 4.0 10.0 0.00 0.01 0.00 73 1010.4
20260904100504 80 212 4.0 10.0 0.00 0.01 0.00 73 1010.3
20260904100003 80 217 3.0 9.0 0.00 0.01 0.00 73 1010.3
20260904095503 80 215 3.0 8.0 0.00 0.01 0.00 72 1010.2
20260904095003 81 206 3.0 9.0 0.00 0.01 0.00 72 1010.2
20260904094503 81 202 4.0 10.0 0.00 0.01 0.00 71 1010.1
20260904094003 81 203 4.0 10.0 0.00 0.01 0.00 71 1010.1
20260904093504 81 205 4.0 12.0 0.00 0.01 0.00 71 1010.1
20260904093004 81 200 4.0 12.0 0.00 0.01 0.00 71 1010.1
20260904092503 81 203 4.0 9.0 0.00 0.01 0.00 71 1009.9
20260904092003 81 207 4.0 13.0 0.00 0.01 0.00 70 1009.9
20260904091504 81 201 5.0 13.0 0.00 0.01 0.00 70 1009.8
20260904091003 81 202 6.0 14.0 0.00 0.01 0.00 71 1009.7
20260904090503 81 200 6.0 15.0 0.00 0.01 0.00 71 1009.7
20260904090003 81 203 6.0 15.0 0.00 0.01 0.00 71 1009.7
20260904085503 81 207 6.0 14.0 0.00 0.01 0.00 71 1009.8
20260904085003 81 208 5.0 14.0 0.00 0.01 0.00 71 1009.7
20260904084503 81 206 5.0 14.0 0.00 0.01 0.00 71 1009.7
20260904084003 81 208 5.0 13.0 0.00 0.01 0.00 71 1009.7
20260904083503 81 215 5.0 13.0 0.00 0.01 0.00 71 1009.6
20260904083003 81 215 5.0 11.0 0.00 0.01 0.00 71 1009.6
20260904082503 81 210 6.0 16.0 0.00 0.01 0.00 70 1009.7
20260904082213 82 208 6.0 16.0 0.00 0.01 0.00 69 1009.6
20260904081503 82 203 5.0 13.0 0.00 0.01 0.00 68 1009.6
20260904081003 82 200 5.0 14.0 0.00 0.01 0.00 68 1009.7
20260904080503 82 200 6.0 17.0 0.00 0.01 0.00 68 1009.7
20260904080004 82 200 5.0 17.0 0.00 0.01 0.00 68 1009.7
20260904075714 82 202 5.0 17.0 0.00 0.01 0.00 68 1009.8
20260904075003 82 204 6.0 15.0 0.00 0.01 0.00 68 1009.7
20260904074714 82 205 6.0 15.0 0.00 0.01 0.00 67 1009.8
20260904074213 82 204 5.0 17.0 0.00 0.01 0.00 67 1009.8
20260904073503 82 210 5.0 15.0 0.00 0.01 0.00 67 1009.7
20260904073213 82 209 5.0 15.0 0.00 0.01 0.00 67 1009.7
20260904072503 82 210 5.0 12.0 0.00 0.01 0.00 67 1009.7
20260904072003 82 208 5.0 12.0 0.00 0.01 0.00 67 1009.8
20260904071503 82 197 4.0 9.0 0.00 0.01 0.00 66 1009.7
20260904071214 82 196 5.0 11.0 0.00 0.01 0.00 66 1009.7
20260904070714 82 196 5.0 11.0 0.00 0.01 0.00 66 1009.7
20260904070003 82 195 5.0 14.0 0.00 0.01 0.00 66 1009.7
20260904065503 83 196 5.0 14.0 0.00 0.01 0.00 65 1009.8
20260904065004 83 191 5.0 13.0 0.00 0.01 0.00 65 1009.7
20260904064503 83 191 5.0 13.0 0.00 0.01 0.00 65 1009.7
20260904064214 83 197 5.0 13.0 0.00 0.01 0.00 65 1009.7
20260904063713 83 195 5.0 12.0 0.00 0.01 0.00 65 1009.7
20260904063212 83 191 5.0 12.0 0.00 0.01 0.00 65 1009.8
20260904062713 83 190 5.0 12.0 0.00 0.01 0.00 65 1009.7
20260904062214 83 189 5.0 14.0 0.00 0.01 0.00 65 1009.8
20260904061503 83 187 5.0 11.0 0.00 0.01 0.00 65 1009.7
20260904061003 83 180 5.0 10.0 0.00 0.01 0.00 65 1009.7
20260904060503 83 181 5.0 12.0 0.00 0.01 0.00 65 1009.6
20260904060003 83 182 5.0 12.0 0.00 0.01 0.00 65 1009.6
20260904055503 83 183 5.0 12.0 0.00 0.01 0.00 65 1009.6
20260904055003 83 182 5.0 12.0 0.00 0.01 0.00 65 1009.6
20260904054503 83 185 5.0 14.0 0.00 0.01 0.00 65 1009.5
20260904054003 83 189 6.0 14.0 0.00 0.01 0.00 65 1009.5
20260904053503 83 182 6.0 14.0 0.00 0.01 0.00 65 1009.4
20260904053214 84 179 6.0 16.0 0.00 0.01 0.00 64 1009.4
20260904052504 84 178 5.0 16.0 0.00 0.01 0.00 64 1009.3
20260904052003 84 180 5.0 11.0 0.00 0.01 0.00 64 1009.3
20260904051503 84 175 7.0 14.0 0.00 0.01 0.00 64 1009.2
20260904051004 84 169 7.0 14.0 0.00 0.01 0.00 63 1009.3
20260904050713 84 169 6.0 16.0 0.00 0.01 0.00 63 1009.2
20260904050214 84 169 5.0 16.0 0.00 0.01 0.00 63 1009.3
20260904045503 84 163 6.0 13.0 0.00 0.01 0.01 63 1009.2
20260904045003 84 162 6.0 13.0 0.00 0.01 0.01 63 1009.2
20260904044503 84 158 5.0 12.0 0.00 0.01 0.01 64 1009.2
20260904044003 84 155 4.0 12.0 0.00 0.01 0.01 64 1009.1
20260904043503 84 155 4.0 8.0 0.00 0.01 0.01 64 1009.1
20260904043003 84 151 4.0 12.0 0.00 0.01 0.01 64 1009.1
20260904042715 84 150 4.0 12.0 0.00 0.01 0.01 64 1009.1
20260904042003 84 148 6.0 11.0 0.00 0.01 0.01 64 1009.2
20260904041712 84 151 6.0 11.0 0.00 0.01 0.01 65 1009.2
20260904041004 84 153 5.0 10.0 0.00 0.01 0.01 65 1009.2
20260904040503 84 154 5.0 11.0 0.00 0.01 0.01 65 1009.3
20260904040213 84 150 4.0 11.0 0.00 0.01 0.01 65 1009.3
20260904035503 84 148 4.0 11.0 0.00 0.01 0.01 65 1009.3
20260904035003 84 148 5.0 11.0 0.00 0.01 0.01 66 1009.3
20260904034504 84 148 4.0 10.0 0.00 0.01 0.01 66 1009.3
20260904034004 84 143 3.0 8.0 0.00 0.01 0.01 67 1009.4
20260904033503 84 143 3.0 10.0 0.00 0.01 0.01 67 1009.4
20260904033003 84 142 3.0 10.0 0.00 0.01 0.01 68 1009.3
20260904032714 84 139 3.0 8.0 0.00 0.01 0.01 67 1009.4
20260904032003 84 145 3.0 8.0 0.00 0.01 0.01 67 1009.4
20260904031503 84 145 4.0 8.0 0.00 0.01 0.01 67 1009.3
20260904031003 84 148 4.0 9.0 0.00 0.01 0.01 67 1009.3
20260904030504 84 148 4.0 11.0 0.00 0.01 0.01 67 1009.2
20260904030213 84 144 3.0 11.0 0.00 0.01 0.01 67 1009.1
20260904025714 84 140 3.0 10.0 0.00 0.01 0.01 67 1009.1
20260904025003 84 133 3.0 7.0 0.00 0.01 0.01 67 1009.1
20260904024503 85 142 3.0 8.0 0.00 0.01 0.01 66 1009.1
20260904024213 85 141 3.0 8.0 0.00 0.01 0.01 66 1009.0
20260904023503 85 134 3.0 10.0 0.00 0.01 0.01 66 1009.0
20260904023003 85 139 3.0 10.0 0.00 0.01 0.01 66 1009.0
20260904022503 85 144 3.0 8.0 0.00 0.01 0.01 66 1008.9
20260904022003 86 137 3.0 8.0 0.00 0.01 0.01 65 1008.9
20260904021503 86 131 2.0 8.0 0.00 0.01 0.01 65 1008.9
20260904021003 86 137 3.0 7.0 0.00 0.01 0.01 64 1008.8
20260904020503 86 142 4.0 8.0 0.00 0.01 0.01 64 1008.8
20260904020003 86 140 3.0 8.0 0.00 0.01 0.01 64 1008.9
20260904015503 87 141 3.0 8.0 0.00 0.01 0.01 64 1008.8
20260904015003 87 150 3.0 8.0 0.00 0.01 0.01 63 1008.7
20260904014503 87 145 4.0 10.0 0.00 0.01 0.01 62 1008.7
20260904014003 88 141 5.0 11.0 0.00 0.01 0.01 62 1008.6
20260904013503 88 146 5.0 14.0 0.00 0.01 0.01 62 1008.4
20260904013004 88 146 5.0 14.0 0.00 0.01 0.01 62 1008.4
20260904012713 88 142 4.0 14.0 0.00 0.01 0.01 62 1008.3
20260904012003 88 147 4.0 8.0 0.00 0.01 0.01 63 1008.3
20260904011503 88 151 4.0 10.0 0.00 0.01 0.01 63 1008.2
20260904011003 88 147 4.0 10.0 0.00 0.01 0.01 63 1008.1
20260904010503 89 142 3.0 10.0 0.00 0.01 0.01 63 1008.1
20260904010003 89 147 3.0 8.0 0.00 0.01 0.01 63 1008.1
20260904005713 89 150 3.0 8.0 0.00 0.01 0.01 62 1008.0
20260904005003 90 148 4.0 11.0 0.00 0.01 0.01 61 1008.0
20260904004503 90 148 4.0 11.0 0.00 0.01 0.01 61 1008.0
20260904004214 90 147 4.0 11.0 0.00 0.01 0.01 60 1008.0
20260904003503 90 144 4.0 10.0 0.00 0.01 0.01 59 1007.9
20260904003003 91 149 4.0 8.0 0.00 0.01 0.01 59 1007.9
20260904002504 91 152 4.0 11.0 0.00 0.01 0.01 58 1007.9
20260904002214 91 156 5.0 11.0 0.00 0.01 0.01 58 1007.9
20260904001503 92 158 5.0 11.0 0.00 0.01 0.01 57 1007.9
20260904001003 92 154 5.0 13.0 0.00 0.01 0.01 56 1007.9
20260904000503 92 157 6.0 13.0 0.00 0.01 0.01 56 1007.9
20260904000003 92 159 5.0 13.0 0.00 0.01 0.01 55 1007.9
20260903235503 93 161 5.0 11.0 0.00 0.01 0.01 55 1007.8
20260903235214 93 163 5.0 11.0 0.00 0.01 0.01 55 1007.7
20260903234503 93 160 5.0 13.0 0.00 0.01 0.01 54 1007.7
20260903234003 93 159 5.0 13.0 0.00 0.01 0.01 55 1007.7
20260903233503 94 154 5.0 10.0 0.00 0.01 0.01 53 1007.7
20260903233214 94 156 5.0 12.0 0.00 0.01 0.01 54 1007.6
20260903232503 94 166 5.0 14.0 0.00 0.01 0.01 53 1007.7
20260903232004 94 159 5.0 14.0 0.00 0.01 0.01 52 1007.7
20260903231503 94 152 7.0 16.0 0.00 0.01 0.01 53 1007.6
20260903231003 94 153 6.0 16.0 0.00 0.01 0.01 52 1007.5
20260903230713 95 153 6.0 16.0 0.00 0.01 0.01 52 1007.5
20260903230213 95 153 5.0 11.0 0.00 0.01 0.01 53 1007.6
20260903225503 95 151 6.0 11.0 0.00 0.01 0.01 52 1007.5
20260903225003 95 156 6.0 14.0 0.00 0.01 0.01 52 1007.5
20260903224503 96 150 7.0 15.0 0.00 0.01 0.01 51 1007.5
20260903224003 96 160 6.0 15.0 0.00 0.01 0.01 51 1007.5
20260903223503 96 174 6.0 15.0 0.00 0.01 0.01 52 1007.5
20260903223003 96 164 5.0 14.0 0.00 0.01 0.01 51 1007.4
20260903222503 96 153 5.0 14.0 0.00 0.01 0.01 51 1007.4
20260903222003 96 145 6.0 14.0 0.00 0.01 0.01 51 1007.4
20260903221504 96 152 6.0 14.0 0.00 0.01 0.01 52 1007.4
20260903221003 96 173 7.0 18.0 0.00 0.01 0.01 52 1007.4
20260903220503 96 171 8.0 18.0 0.00 0.01 0.01 52 1007.4
20260903220003 96 154 8.0 16.0 0.00 0.01 0.01 52 1007.4
20260903215714 97 153 7.0 16.0 0.00 0.01 0.01 51 1007.5
20260903215003 97 175 5.0 14.0 0.00 0.01 0.01 53 1007.5
20260903214503 97 166 6.0 12.0 0.00 0.01 0.01 53 1007.5
20260903214003 96 155 7.0 14.0 0.00 0.01 0.01 52 1007.5
20260903213503 96 151 7.0 14.0 0.00 0.01 0.01 52 1007.6
20260903213003 97 148 7.0 13.0 0.00 0.01 0.01 51 1007.6
20260903212503 97 164 7.0 15.0 0.00 0.01 0.01 50 1007.5
20260903212003 97 181 6.0 15.0 0.00 0.01 0.01 51 1007.6
20260903211714 97 180 5.0 15.0 0.00 0.01 0.01 49 1007.5
20260903211004 97 182 7.0 15.0 0.00 0.01 0.01 50 1007.6
20260903210503 97 190 7.0 15.0 0.00 0.01 0.01 50 1007.6
20260903210003 97 201 7.0 18.0 0.00 0.01 0.01 50 1007.6
20260903205503 96 201 7.0 19.0 0.00 0.01 0.01 52 1007.8
20260903205213 96 195 8.0 19.0 0.00 0.01 0.01 49 1007.7
20260903204503 96 179 8.0 18.0 0.00 0.01 0.01 48 1007.9
20260903204003 96 175 8.0 18.0 0.00 0.01 0.01 48 1007.9
20260903203503 96 175 7.0 16.0 0.00 0.01 0.01 50 1008.0
20260903203003 96 178 7.0 16.0 0.00 0.01 0.01 53 1008.0
20260903202503 96 170 7.0 15.0 0.00 0.01 0.01 52 1008.0
20260903202003 96 162 8.0 18.0 0.00 0.01 0.01 52 1008.0
20260903201503 96 177 8.0 18.0 0.00 0.01 0.01 50 1008.0
20260903201003 96 195 6.0 14.0 0.00 0.01 0.01 51 1008.1
20260903200714 96 185 6.0 12.0 0.00 0.01 0.01 51 1008.1
20260903200003 96 178 6.0 22.0 0.00 0.01 0.01 49 1008.2
20260903195503 96 190 6.0 16.0 0.00 0.01 0.01 50 1008.2
20260903195003 96 178 7.0 17.0 0.00 0.01 0.01 50 1008.3
20260903194713 96 175 7.0 17.0 0.00 0.01 0.01 49 1008.3
20260903194003 95 168 5.0 15.0 0.00 0.01 0.01 52 1008.3
20260903193713 95 155 6.0 15.0 0.00 0.01 0.01 57 1008.4
20260903193214 94 148 6.0 12.0 0.00 0.01 0.01 58 1008.4
20260903192503 94 145 6.0 14.0 0.00 0.01 0.01 57 1008.5
20260903192003 94 145 6.0 14.0 0.00 0.01 0.01 57 1008.6
20260903191503 94 147 5.0 12.0 0.00 0.01 0.01 56 1008.6
20260903191003 93 147 5.0 15.0 0.00 0.01 0.01 58 1008.7
20260903190503 93 145 5.0 15.0 0.00 0.01 0.01 59 1008.9
20260903190004 93 145 6.0 16.0 0.00 0.01 0.01 60 1008.9
20260903185503 92 145 6.0 16.0 0.00 0.01 0.01 60 1009.0
20260903185003 92 143 6.0 14.0 0.00 0.01 0.01 58 1009.0
20260903184713 92 143 6.0 14.0 0.00 0.01 0.01 59 1009.0
20260903184003 92 150 4.0 12.0 0.00 0.01 0.01 61 1009.1
20260903183713 92 171 4.0 11.0 0.00 0.01 0.01 60 1009.2
20260903183004 91 193 6.0 13.0 0.00 0.01 0.01 58 1009.3
20260903182503 91 191 6.0 11.0 0.00 0.01 0.01 61 1009.5
20260903182003 91 161 5.0 11.0 0.00 0.01 0.01 60 1009.6
20260903181503 91 133 4.0 12.0 0.00 0.01 0.01 61 1009.6
20260903181004 90 169 4.0 12.0 0.00 0.01 0.01 60 1009.7
20260903180503 90 170 4.0 11.0 0.00 0.01 0.01 64 1009.8
20260903180003 90 162 5.0 11.0 0.00 0.01 0.01 62 1009.8
20260903175503 90 154 5.0 14.0 0.00 0.01 0.01 62 1009.7
20260903175003 90 145 5.0 14.0 0.00 0.01 0.01 64 1009.8
20260903174503 89 159 4.0 9.0 0.00 0.01 0.01 62 1009.8
20260903174005 89 172 4.0 9.0 0.00 0.01 0.01 61 1009.8
20260903173503 89 196 3.0 8.0 0.00 0.01 0.01 62 1009.9
20260903173003 88 184 4.0 11.0 0.00 0.01 0.01 64 1010.1
20260903172504 88 165 5.0 11.0 0.00 0.01 0.01 61 1010.1
20260903172213 88 159 5.0 13.0 0.00 0.01 0.01 62 1010.2
20260903171503 88 168 6.0 13.0 0.00 0.01 0.01 64 1010.0
20260903171003 87 171 6.0 13.0 0.00 0.01 0.01 63 1010.1
20260903170503 87 168 4.0 10.0 0.00 0.01 0.01 63 1010.2
20260903170003 86 167 2.0 10.0 0.00 0.01 0.01 64 1010.3
20260903165712 86 176 2.0 8.0 0.00 0.01 0.01 66 1010.4
20260903165003 85 183 3.0 9.0 0.00 0.01 0.01 66 1010.4
20260903164503 84 177 2.0 7.0 0.00 0.01 0.01 67 1010.4
20260903164004 84 169 2.0 7.0 0.00 0.01 0.01 68 1010.4
20260903163503 84 153 4.0 11.0 0.00 0.01 0.01 68 1010.3
20260903163003 84 154 5.0 13.0 0.00 0.01 0.01 67 1010.1
20260903162503 84 157 4.0 13.0 0.00 0.01 0.01 69 1010.2
20260903162003 84 147 4.0 10.0 0.00 0.01 0.01 70 1010.1
20260903161503 83 152 4.0 10.0 0.00 0.01 0.01 69 1010.3
20260903161003 83 161 3.0 9.0 0.00 0.01 0.01 70 1010.4
20260903160503 84 143 4.0 11.0 0.00 0.01 0.01 70 1010.2
20260903160003 84 135 5.0 11.0 0.00 0.01 0.01 67 1010.2
20260903155504 84 140 5.0 10.0 0.00 0.01 0.01 67 1010.2
20260903155008 84 146 4.0 9.0 0.00 0.01 0.01 67 1010.3
20260903154503 84 148 2.0 9.0 0.00 0.01 0.01 67 1010.4
20260903154213 84 152 2.0 7.0 0.00 0.01 0.01 69 1010.3
20260903153503 84 139 3.0 9.0 0.00 0.01 0.01 69 1010.3
20260903153003 83 143 2.0 7.0 0.00 0.01 0.01 71 1010.4
20260903152503 83 137 0.0 4.0 0.00 0.01 0.01 72 1010.5
20260903152215 82 0 0.0 0.0 0.00 0.01 0.01 72 1010.6
20260903151713 82 136 0.0 2.0 0.00 0.01 0.01 70 1010.6
20260903151003 82 136 0.0 2.0 0.00 0.01 0.01 72 1010.4
20260903150503 82 0 0.0 0.0 0.00 0.01 0.01 70 1010.6
20260903150003 82 136 0.0 1.0 0.00 0.01 0.01 69 1010.5
20260903145503 82 139 1.0 5.0 0.00 0.01 0.01 70 1010.3
20260903145003 82 144 3.0 8.0 0.00 0.01 0.01 69 1010.2
20260903144508 82 144 3.0 8.0 0.00 0.01 0.01 69 1010.1